FW8241 Weather Reports


time (UTC)temp
F
wind
direction
speed
knots
gust
knots
rain 1hr
in
rain 24hr
in
rain mn
in
humidity
%
barometer
mb
20260502180540 74 5 2.6 7.8 0.00 0.06 0.03 79 861.5
20260502164030 74 5 2.6 8.7 0.01 0.07 0.03 77 862.2
20260502163529 74 5 4.3 8.7 0.01 0.07 0.03 77 862.2
20260502163040 74 5 2.6 7.0 0.00 0.06 0.02 76 862.2
20260502162531 74 5 1.7 7.8 0.00 0.06 0.02 77 862.2
20260502162027 74 5 2.6 7.8 0.00 0.06 0.02 75 862.2
20260502161536 74 5 1.7 7.0 0.00 0.06 0.02 77 862.1
20260502161026 74 5 3.5 7.0 0.00 0.06 0.02 75 862.1
20260502160525 73 5 0.0 7.8 0.00 0.06 0.02 79 862.1
20260502152013 70 5 0.0 3.5 0.00 0.06 0.02 85 862.3
20260502151512 69 5 0.9 3.5 0.00 0.06 0.02 84 862.3
20260502151010 67 5 0.9 2.6 0.00 0.06 0.02 90 862.2
20260502150509 67 5 0.0 0.9 0.00 0.06 0.02 92 862.2
20260502130544 57 5 2.6 4.3 0.01 0.07 0.02 94 861.5
20260502123541 57 5 2.6 4.3 0.01 0.07 0.02 94 861.3
20260502123106 57 5 3.5 4.3 0.01 0.07 0.02 94 861.2
20260502122540 57 5 3.5 5.2 0.01 0.07 0.02 93 861.2
20260502122043 57 5 3.5 5.2 0.01 0.07 0.02 93 861.2
20260502121540 57 5 3.5 5.2 0.00 0.06 0.01 93 861.1
20260502121039 57 5 3.5 5.2 0.00 0.06 0.01 94 861.1
20260502120538 57 5 3.5 5.2 0.00 0.06 0.01 94 861.0
20260502115538 57 5 3.5 4.3 0.00 0.06 0.01 94 861.1
20260502115041 57 5 2.6 4.3 0.00 0.06 0.01 94 861.1
20260502114537 57 5 2.6 4.3 0.00 0.06 0.01 94 861.0
20260502114040 58 5 2.6 4.3 0.00 0.06 0.01 94 861.0
20260502113536 58 5 3.5 4.3 0.00 0.06 0.01 94 860.9
20260502113044 58 5 3.5 4.3 0.00 0.06 0.01 94 860.9
20260502112534 58 5 3.5 4.3 0.00 0.06 0.01 94 860.8
20260502112035 58 5 3.5 4.3 0.00 0.06 0.01 94 860.7
20260502111540 58 5 2.6 4.3 0.00 0.06 0.01 94 860.7
20260502111032 59 5 3.5 4.3 0.00 0.06 0.01 94 860.7
20260502110532 59 5 2.6 4.3 0.00 0.06 0.01 94 860.7
20260502110032 59 5 3.5 4.3 0.00 0.06 0.01 94 860.5
20260502105532 59 5 3.5 4.3 0.00 0.06 0.01 94 860.5
20260502105032 59 5 2.6 4.3 0.00 0.06 0.01 95 860.5
20260502104534 59 5 3.5 4.3 0.00 0.06 0.01 95 860.4
20260502104030 59 5 2.6 4.3 0.00 0.06 0.01 95 860.4
20260502103530 59 5 2.6 4.3 0.00 0.06 0.01 95 860.4
20260502103030 59 5 2.6 4.3 0.00 0.06 0.01 95 860.4
20260502102530 59 5 2.6 3.5 0.00 0.06 0.01 95 860.4
20260502102030 59 5 2.6 3.5 0.00 0.06 0.01 95 860.4
20260502101530 59 5 1.7 3.5 0.00 0.06 0.01 95 860.4
20260502101029 59 5 1.7 3.5 0.00 0.06 0.01 95 860.4
20260502100531 59 5 1.7 2.6 0.00 0.06 0.01 95 860.4
20260502091526 60 5 1.7 3.5 0.00 0.06 0.01 95 860.3
20260502091025 60 5 1.7 3.5 0.00 0.06 0.01 95 860.3
20260502090527 59 5 1.7 3.5 0.00 0.06 0.01 95 860.4
20260502071515 61 5 2.6 3.5 0.00 0.06 0.00 95 861.2
20260502071014 61 5 2.6 3.5 0.00 0.06 0.00 95 861.2
20260502070517 61 5 2.6 3.5 0.00 0.06 0.00 95 861.3
20260502070018 60 5 2.6 3.5 0.00 0.06 0.00 95 861.3
20260502065515 60 5 1.7 3.5 0.00 0.06 0.00 95 861.3
20260502065016 60 5 2.6 3.5 0.00 0.06 0.00 95 861.3
20260502064512 60 5 2.6 3.5 0.00 0.06 0.00 95 861.4
20260502064010 60 5 2.6 3.5 0.00 0.06 0.00 95 861.6
20260502063510 60 5 1.7 3.5 0.00 0.06 0.00 95 861.6
20260502063010 60 5 1.7 3.5 0.00 0.06 0.00 95 861.6
20260502062510 60 5 2.6 3.5 0.00 0.06 0.00 95 861.7
20260502062012 60 5 1.7 3.5 0.00 0.06 0.00 95 861.7
20260502061509 60 5 2.6 3.5 0.00 0.06 0.00 95 861.7
20260502061008 60 5 1.7 3.5 0.00 0.06 0.00 95 861.7
20260502060511 60 5 1.7 3.5 0.00 0.06 0.00 95 861.7
20260502060007 60 5 2.6 3.5 0.00 0.06 0.00 95 861.7
20260502055507 60 5 2.6 3.5 0.00 0.07 0.06 95 861.8
20260502055007 60 5 2.6 3.5 0.00 0.07 0.06 95 861.8
20260502054506 60 5 2.6 3.5 0.00 0.07 0.06 95 861.8
20260502054005 60 5 2.6 3.5 0.00 0.07 0.06 95 861.8
20260502053506 61 5 2.6 3.5 0.00 0.07 0.06 95 861.9
20260502053005 61 5 2.6 3.5 0.00 0.07 0.06 95 861.9
20260502052506 61 5 2.6 3.5 0.00 0.07 0.06 94 861.9
20260502052006 61 5 2.6 3.5 0.00 0.07 0.06 95 861.9
20260502051505 61 5 2.6 3.5 0.00 0.07 0.06 94 861.9
20260502051004 61 5 2.6 3.5 0.00 0.07 0.06 95 862.0
20260502050504 61 5 2.6 3.5 0.00 0.07 0.06 95 862.0
20260502050007 61 5 2.6 4.3 0.00 0.07 0.06 95 862.0
20260502045505 61 5 2.6 4.3 0.00 0.07 0.06 95 862.1
20260502045005 61 5 2.6 3.5 0.00 0.07 0.06 94 862.1
20260502044504 62 5 2.6 3.5 0.00 0.07 0.06 94 862.2
20260502044003 62 5 1.7 3.5 0.01 0.07 0.06 95 862.3
20260502043503 62 5 2.6 3.5 0.01 0.07 0.06 94 862.3
20260502043003 62 5 2.6 3.5 0.01 0.07 0.06 94 862.3
20260502042503 62 5 1.7 3.5 0.01 0.07 0.06 94 862.3
20260502042003 63 5 1.7 3.5 0.01 0.07 0.06 94 862.3
20260502041503 63 5 1.7 3.5 0.01 0.07 0.06 94 862.4
20260502041003 63 5 1.7 3.5 0.01 0.07 0.06 95 862.4
20260502040503 63 5 1.7 2.6 0.01 0.07 0.06 95 862.4
20260502040002 63 5 1.7 2.6 0.01 0.07 0.06 94 862.4
20260502035503 64 5 1.7 3.5 0.01 0.07 0.06 94 862.3
20260502035003 64 5 1.7 3.5 0.01 0.07 0.06 95 862.3
20260502034601 64 5 1.7 2.6 0.01 0.07 0.06 95 862.3
20260502034102 64 5 1.7 2.6 0.00 0.06 0.05 94 862.3
20260502033601 64 5 0.9 2.6 0.00 0.06 0.05 94 862.2
20260502033100 64 5 1.7 2.6 0.00 0.06 0.05 94 862.1
20260502032558 64 5 0.9 2.6 0.00 0.06 0.05 94 862.0
20260502032058 64 5 1.7 2.6 0.00 0.06 0.05 94 861.9
20260502031557 64 5 0.9 2.6 0.00 0.06 0.05 94 861.9
20260502031057 65 5 0.9 1.7 0.00 0.06 0.05 94 861.7
20260502030557 65 5 0.9 2.6 0.00 0.06 0.05 94 861.7
20260502030101 65 5 0.9 2.6 0.00 0.06 0.05 95 861.6
20260502025557 65 5 1.7 2.6 0.00 0.06 0.05 95 861.6
20260502025054 65 5 0.9 2.6 0.00 0.06 0.05 95 861.5
20260502024553 65 5 0.9 2.6 0.00 0.06 0.05 95 861.4
20260502024053 65 5 0.9 2.6 0.00 0.06 0.05 95 861.3
20260502023552 65 5 0.9 2.6 0.00 0.06 0.05 95 861.2
20260502023052 66 5 0.9 2.6 0.00 0.06 0.05 95 861.1
20260502022551 66 5 1.7 2.6 0.00 0.06 0.05 95 861.0
20260502022052 66 5 0.9 2.6 0.00 0.06 0.05 95 860.9
20260502021551 66 5 0.9 2.6 0.00 0.06 0.05 95 860.9
20260502021051 66 5 0.9 1.7 0.00 0.06 0.05 95 860.8
20260502020553 66 5 0.9 2.6 0.00 0.06 0.05 95 860.6
20260502020053 66 5 1.7 2.6 0.00 0.06 0.05 95 860.7
20260502015552 66 5 0.9 1.7 0.00 0.07 0.05 95 860.5
20260502015052 66 5 0.9 1.7 0.00 0.07 0.05 95 860.6
20260502014550 66 5 0.9 2.6 0.00 0.07 0.05 95 860.4
20260502014050 66 5 0.9 2.6 0.00 0.07 0.05 95 860.2
20260502013550 66 5 0.9 2.6 0.00 0.07 0.05 95 860.1
20260502013050 66 5 0.0 2.6 0.00 0.07 0.05 95 860.0
20260502012550 66 5 0.9 2.6 0.00 0.07 0.05 95 859.9
20260502012050 66 5 0.0 0.0 0.00 0.07 0.05 95 859.9
20260502011550 66 5 0.0 0.0 0.00 0.07 0.05 94 859.8
20260502011049 67 5 0.0 0.0 0.00 0.07 0.05 94 859.7
20260502010549 67 5 0.0 0.0 0.00 0.07 0.05 94 859.6
20260502010050 67 5 0.0 0.0 0.01 0.07 0.05 94 859.5
20260502005549 67 5 0.0 0.0 0.01 0.07 0.05 94 859.5
20260502005049 67 5 0.0 0.0 0.01 0.07 0.05 94 859.4
20260502004549 67 5 0.0 0.0 0.01 0.07 0.05 94 859.4
20260502004051 67 5 0.0 0.0 0.01 0.07 0.05 94 859.2
20260502003548 67 5 0.0 0.0 0.01 0.07 0.05 94 859.2
20260502003049 68 5 0.0 0.0 0.01 0.07 0.05 94 859.1
20260502002552 68 5 0.0 2.6 0.01 0.07 0.05 94 859.2
20260502002048 68 5 0.0 2.6 0.01 0.07 0.05 93 859.0
20260502001553 68 5 0.9 2.6 0.01 0.07 0.05 93 858.8
20260502001048 68 5 0.0 4.3 0.01 0.07 0.05 93 858.9
20260502000548 68 5 0.9 4.3 0.01 0.07 0.05 93 858.9
20260502000057 69 5 0.0 4.3 0.00 0.06 0.04 93 858.8
20260501235547 69 5 0.9 2.6 0.00 0.06 0.04 93 858.6
20260501235050 69 5 0.0 2.6 0.00 0.06 0.04 93 858.6
20260501234547 69 5 0.9 5.2 0.00 0.06 0.04 93 858.4
20260501234047 69 5 1.7 5.2 0.00 0.06 0.04 93 858.4
20260501233548 70 5 0.0 3.5 0.00 0.06 0.04 93 858.3
20260501233047 70 5 0.9 4.3 0.00 0.06 0.04 93 858.2
20260501232547 70 5 2.6 4.3 0.00 0.06 0.04 92 858.2
20260501232046 70 5 2.6 4.3 0.00 0.06 0.04 92 858.2
20260501231553 71 5 1.7 4.3 0.00 0.06 0.04 91 858.0
20260501231047 71 5 0.9 4.3 0.00 0.06 0.04 91 858.0
20260501230546 71 5 1.7 5.2 0.00 0.06 0.04 91 858.0
20260501230046 71 5 0.9 11.3 0.00 0.06 0.04 90 857.9
20260501225546 71 5 3.5 9.6 0.00 0.07 0.04 89 857.9
20260501225047 71 5 0.9 7.0 0.00 0.07 0.04 91 857.7
20260501224545 71 5 0.9 4.3 0.00 0.07 0.04 91 857.8
20260501224048 71 5 2.6 4.3 0.00 0.07 0.04 90 857.8
20260501223545 72 5 0.0 4.3 0.00 0.07 0.04 91 857.6
20260501223047 72 5 1.7 5.2 0.00 0.07 0.04 91 857.8
20260501222547 71 5 1.7 5.2 0.00 0.07 0.04 90 857.8
20260501222044 71 5 0.0 2.6 0.00 0.07 0.04 91 857.9
20260501221553 71 5 0.0 3.5 0.00 0.07 0.04 91 857.8
20260501221043 71 5 0.0 8.7 0.00 0.07 0.04 90 857.9
20260501220543 71 5 2.6 8.7 0.00 0.07 0.04 89 857.9
20260501220043 71 5 2.6 8.7 0.00 0.07 0.04 89 858.0
20260501215542 71 5 0.9 2.6 0.00 0.07 0.04 90 858.0
20260501215044 71 5 0.0 2.6 0.00 0.07 0.04 89 858.0
20260501214548 71 5 0.0 2.6 0.00 0.07 0.04 89 858.0
20260501214040 71 5 0.0 0.0 0.00 0.07 0.04 90 857.9
20260501213540 71 5 0.0 4.3 0.00 0.07 0.04 90 858.1
20260501213040 70 5 1.7 4.3 0.01 0.07 0.04 88 858.1
20260501212543 70 5 0.0 0.0 0.01 0.07 0.04 92 858.2
20260501212044 70 5 0.0 1.7 0.01 0.07 0.04 92 858.2
20260501211540 70 5 0.0 1.7 0.01 0.07 0.04 91 858.2
20260501211039 71 5 0.9 1.7 0.01 0.07 0.04 90 858.2
20260501210539 72 5 0.0 1.7 0.01 0.07 0.04 89 858.2
20260501210038 72 5 0.0 2.6 0.01 0.07 0.04 87 858.2
20260501205538 72 5 0.0 2.6 0.01 0.07 0.04 85 858.2
20260501205038 73 5 0.0 2.6 0.01 0.07 0.04 83 858.2
20260501204538 73 5 0.0 2.6 0.01 0.07 0.04 85 858.2
20260501204036 73 5 0.0 4.3 0.01 0.07 0.04 83 858.3
20260501203536 73 5 1.7 4.3 0.01 0.07 0.04 81 858.4
20260501203036 73 5 0.9 4.3 0.00 0.06 0.03 82 858.4
20260501202536 73 5 0.0 5.2 0.00 0.06 0.03 84 858.5
20260501202037 73 5 1.7 5.2 0.00 0.06 0.03 82 858.6
20260501201536 73 5 1.7 5.2 0.00 0.06 0.03 83 858.7
20260501201035 73 5 0.9 3.5 0.00 0.06 0.03 83 858.8
20260501200533 73 5 1.7 7.0 0.00 0.06 0.03 83 858.9
20260501200038 73 5 1.7 7.0 0.00 0.06 0.03 83 858.9
20260501195535 73 5 0.0 4.3 0.00 0.06 0.03 84 858.9
20260501195035 73 5 1.7 4.3 0.00 0.06 0.03 83 859.0
20260501194537 73 5 0.0 4.3 0.00 0.06 0.03 84 859.1
20260501194031 73 5 0.0 7.8 0.00 0.06 0.03 79 859.1
20260501193531 73 5 0.9 7.0 0.00 0.06 0.03 82 859.1
20260501193035 72 5 0.0 1.7 0.00 0.06 0.03 82 859.2
20260501192528 72 5 0.0 0.9 0.00 0.06 0.03 87 859.3
20260501192028 72 5 0.0 0.9 0.00 0.06 0.03 86 859.3
20260501191530 72 5 0.0 1.7 0.00 0.06 0.03 87 859.4
20260501191029 72 5 0.0 1.7 0.00 0.06 0.03 90 859.5
20260501190526 72 5 0.0 2.6 0.00 0.06 0.03 87 859.5
20260501190039 71 5 0.0 1.7 0.00 0.06 0.03 88 859.6
20260501185525 71 5 0.0 1.7 0.00 0.07 0.03 88 859.8
20260501185027 71 5 0.0 4.3 0.00 0.07 0.03 90 859.9
20260501184525 71 5 0.0 4.3 0.00 0.07 0.03 89 860.0
20260501184025 71 5 0.0 3.5 0.00 0.07 0.03 90 860.0
20260501183527 71 5 0.0 1.7 0.00 0.07 0.03 90 860.0
20260501183024 71 5 0.0 1.7 0.00 0.07 0.03 89 860.0
20260501182524 71 5 0.0 3.5 0.00 0.07 0.03 89 860.1
20260501182026 71 5 1.7 3.5 0.00 0.07 0.03 88 860.2
20260501181528 71 5 0.0 4.3 0.01 0.07 0.03 88 860.2
20260501181024 70 5 1.7 3.5 0.01 0.07 0.03 90 860.2